FENGYUN 1C DEB

Satellite information

Favourite Embed

Satellite Type and Status

DEBRISIN ORBIT

Key statistics

Satellite FENGYUN 1C DEB at a glance.

Uptime

9715

Days in orbit

Revolutions

≈ 14.1

Per day

Orbit

SSO

Sun Synchronous Orbit

Inclination

98.8

Latest

Satellite identification and parameters

Extended collection of information and parameters for FENGYUN 1C DEB.

Object identification

Identified? True

Debris? True

Object name: FENGYUN 1C DEB

International designator: 1999-025RL

Object number (NORAD): 30107

Object ID (CCSDS): 30107

Country: PEOPLES REPUBLIC OF CHINA (PRC)

Current information (Y/N): Y

RCS size: SMALL

Orbital parameters

Period: 101.808 minutes

Inclination: 98.8472 deg

SMA: 7222.413 km

Apoapsis: 935.476 km

Periapsis: 753.08 km

RAAN: 44.5158 deg

Eccentricy: 0.01262712

Argument of periapsis: 273.1441 deg

Mean anomaly: 85.5291 deg

Mean motion: 14.14422872 rev/day

Mean motion (dot): 0.00000293 rev/day2

B* drag term: 0.00016348172 1/REarth

Two-line elements (TLE)

Creation date: Dec. 14, 2025, 3:07 a.m.

Reference frame: TEME

Reference center: EARTH

Epoch: Dec. 13, 2025, 2:30 p.m. UTC

TLE line 0: 0 FENGYUN 1C DEB

TLE line 1: 1 30107U 99025RL 25347.60437575 .00000293 00000-0 16348-3 0 9993

TLE line 2: 2 30107 98.8472 44.5158 0126271 273.1441 85.5291 14.14422872975735

Live tracking on map

Real-time ground track for satellite FENGYUN 1C DEB.

In-orbit conjunctions

A list of the most updated potential collisions computed for object FENGYUN 1C DEB.

Target Orbit TCA Probability of collision Miss distance Type
SL-14 DEB LEO 2025-06-12 03:52:15 0.000101718 126.0 (m) DEBRIS
IRAS DEB SSO 2025-03-15 20:02:10 0.0001429667 336.0 (m) DEBRIS
COSMOS 2251 DEB LEO 2025-03-01 01:03:08 0.0003094224 62.0 (m) DEBRIS
METEOR 2-11 DEB LEO 2024-11-17 13:08:43 0.0001335094 711.0 (m) DEBRIS

Associated space launch

Chinese polar orbiting meteorological satellite

FENGYUN 1C DEB was lifted into orbit during the mission ‘Long March 4B | Feng Yun 1C’, on board a Long March 4B space rocket.

The launch took place on May 10, 1999, 1:33 a.m. from Launch Complex 7.

For more information about the launch, click the button.

Launch to space Long March 4B | Feng Yun 1C
Long March 4B | Feng Yun 1C

Agency: N/A

Status: Launch Successful

Launch date: May 10, 1999, 1:33 a.m. UTC

Rocket: Long March 4B

Launch pad: Launch Complex 7

Location: Taiyuan Satellite Launch Center, People's Republic of China

...

Latest news about this satellite

There are no fresh news available about this satellite. Check back as we update our databases every day.


Newsletter sign-up

Weekly statistics, charts and insights to help you stay on top of the space industry.